Location: Altleiningen
(49.5078°N, 8.0741°E)
Time: 17:11:58
(UTC+00:00)

ERBS - Visible Passes

Search period start: 22 June 2021 00:00
Search period end: 02 July 2021 00:00
Orbit: 399 x 417 km, 57.0° (Epoch: 21 June)

Date Brightness Start Highest point End Pass type
(mag) Time Alt. Az. Time Alt. Az. Time Alt. Az.
22 Jun 4.6 00:46:37 12° SE 00:46:58 12° SE 00:48:12 10° ESE visible
22 Jun 2.1 02:19:21 10° SW 02:22:31 82° SE 02:25:46 10° ENE visible
23 Jun 2.7 01:30:15 22° SSW 01:31:56 44° SE 01:35:03 10° ENE visible
24 Jun 3.5 00:41:05 24° SE 00:41:27 24° SE 00:44:09 10° ENE visible
24 Jun 2.8 02:14:10 10° WSW 02:17:20 52° NNW 02:20:32 10° NE visible
24 Jun 4.6 23:51:52 13° ESE 23:51:52 13° ESE 23:52:46 10° E visible
25 Jun 2.1 01:24:36 21° WSW 01:26:39 87° NW 01:29:54 10° NE visible
26 Jun 2.4 00:35:19 41° S 00:36:02 52° SE 00:39:12 10° ENE visible
26 Jun 3.8 02:09:17 10° W 02:12:15 32° NNW 02:15:14 10° NE visible
26 Jun 3.4 23:45:59 27° ESE 23:45:59 27° ESE 23:48:21 10° ENE visible
27 Jun 3.1 01:18:41 13° W 01:21:28 46° NNW 01:24:37 10° NE visible
27 Jun 4.6 22:56:34 12° E 22:56:34 12° E 22:57:07 10° E visible
28 Jun 2.2 00:29:17 30° WSW 00:30:44 76° NNW 00:33:59 10° NE visible
28 Jun 4.4 02:04:28 10° WNW 02:07:13 24° NNW 02:09:58 10° NE visible
28 Jun 2.1 23:39:46 56° S 23:40:05 61° SE 23:43:18 10° ENE visible
29 Jun 4.0 01:13:25 10° W 01:16:21 30° NNW 01:19:17 10° NE visible
29 Jun 3.3 22:50:10 29° ESE 22:50:10 29° ESE 22:52:28 10° ENE visible
30 Jun 3.3 00:22:51 13° W 00:25:31 42° NNW 00:28:38 10° NE visible
30 Jun 4.8 01:59:37 10° WNW 02:02:13 21° N 02:04:48 10° NE visible
30 Jun 4.3 22:00:23 15° E 22:00:23 15° E 22:01:21 10° E visible
30 Jun 2.4 23:33:03 25° WSW 23:34:46 67° NNW 23:38:00 10° NE visible
01 Jul 4.6 01:08:35 10° WNW 01:11:17 24° N 01:13:59 10° NE visible
01 Jul 2.0 22:42:59 37° SW 22:44:04 71° SE 22:47:18 10° ENE visible
